TimeCDT,TemperatureF,Dew PointF,Humidity,Sea Level PressureIn,VisibilityMPH,Wind Direction,Wind SpeedMPH,Gust SpeedMPH,PrecipitationIn,Events,Conditions,WindDirDegrees,DateUTC
12:53 AM,27.0,21.9,81,30.15,10.0,ENE,3.5,-,N/A,,Clear,60,2011-10-20 05:53:00
1:53 AM,23.0,19.9,88,30.14,10.0,SW,4.6,-,N/A,,Clear,220,2011-10-20 06:53:00
2:53 AM,23.0,19.9,88,30.15,10.0,Calm,Calm,-,N/A,,Clear,0,2011-10-20 07:53:00
3:53 AM,21.0,19.0,92,30.14,10.0,NW,4.6,-,N/A,,Clear,320,2011-10-20 08:53:00
4:53 AM,21.0,18.0,88,30.14,10.0,West,4.6,-,N/A,,Clear,270,2011-10-20 09:53:00
5:53 AM,19.9,18.0,92,30.14,10.0,Calm,Calm,-,N/A,,Clear,0,2011-10-20 10:53:00
6:53 AM,21.0,19.0,92,30.16,10.0,Calm,Calm,-,N/A,,Clear,0,2011-10-20 11:53:00
7:53 AM,19.9,18.0,92,30.17,10.0,Calm,Calm,-,N/A,,Clear,0,2011-10-20 12:53:00
8:53 AM,25.0,23.0,92,30.17,10.0,NNW,3.5,-,N/A,,Clear,340,2011-10-20 13:53:00
9:53 AM,30.0,26.1,85,30.17,10.0,Calm,Calm,-,N/A,,Clear,0,2011-10-20 14:53:00
10:53 AM,37.4,28.4,70,30.09,10.0,Calm,Calm,-,N/A,,Clear,0,2011-10-20 15:53:00
11:53 AM,39.9,27.0,60,30.14,10.0,Calm,Calm,-,N/A,,Clear,0,2011-10-20 16:53:00
12:53 PM,45.0,27.0,49,30.11,10.0,Calm,Calm,-,N/A,,Clear,0,2011-10-20 17:53:00
1:53 PM,48.0,28.9,48,30.08,10.0,South,3.5,-,N/A,,Clear,190,2011-10-20 18:53:00
2:53 PM,51.8,28.4,41,30.01,10.0,Variable,4.6,-,N/A,,Clear,0,2011-10-20 19:53:00
3:53 PM,53.1,30.0,41,30.05,10.0,SW,4.6,-,N/A,,Clear,220,2011-10-20 20:53:00
4:53 PM,54.0,30.0,40,30.04,10.0,SSE,3.5,-,N/A,,Clear,160,2011-10-20 21:53:00
5:53 PM,54.0,30.0,40,30.04,10.0,South,3.5,-,N/A,,Clear,180,2011-10-20 22:53:00
6:53 PM,48.0,30.9,52,30.06,10.0,South,3.5,-,N/A,,Clear,170,2011-10-20 23:53:00
7:53 PM,37.4,30.2,75,30.02,10.0,SSW,3.5,-,N/A,,Clear,210,2011-10-21 00:53:00
8:53 PM,37.0,30.9,79,30.08,10.0,SSW,4.6,-,N/A,,Clear,200,2011-10-21 01:53:00
9:53 PM,36.0,30.0,79,30.08,10.0,South,4.6,-,N/A,,Clear,190,2011-10-21 02:53:00
10:53 PM,37.9,30.0,73,30.07,10.0,South,4.6,-,N/A,,Clear,190,2011-10-21 03:53:00
11:53 PM,36.0,30.0,79,30.07,10.0,Calm,Calm,-,N/A,,Clear,0,2011-10-21 04:53:00